|
NORAD ID: 27491 Int'l Code: 1998-043L
Perigee: 821.7 km
Apogee: 1,127.6 km
Inclination: 99.0 °
Period: 104.4 minutes
Semi major axis: 7345 km
Launch date: July 10, 1998
Source: Commonwealth of Independent States (former USSR) (CIS)
Note: This is SATELLITE DEBRIS
Two Line Element Set (TLE):
1 27491U 98043L 13141.71860113 .00000124 00000-0 13645-3 0 7834
2 27491 099.0434 028.6885 0208237 088.4273 306.6947 13.78969656747996
Source:
NASA's NSSDC Master Catalog entry for SL-16 DEB
|